Location: *
(60.1759°S, 155.0663°W)
Time: 21:22:05
(UTC+00:00)

CZ-4C R/B - Pass Details

Date: 17 September 2019
Orbit: 411 x 494 km, 97.6° (Epoch: 19 October)

Event Time Altitude Azimuth Distance (km) Brightness Sun altitude
Rises 13:52:33 0° 163° (SSE) 2,630 7.5 -18.8°
Reaches altitude 10° 13:54:41 10° 161° (SSE) 1,732 6.6 -18.6°
Maximum altitude 13:58:25 72° 75° (ENE) 530 3.3 -18.2°
Enters shadow 14:00:11 29° 356° (N) 938 4.2 -18.0°
